Location: *
(49.3500°N, 12.6000°E)
Time: 12:53:52
(UTC+00:00)

Cosmos 2058 Rocket - Pass Details

Date: 18 October 2019
Orbit: 611 x 639 km, 82.5° (Epoch: 14 November)

Event Time Altitude Azimuth Distance (km) Brightness Sun altitude
Rises 17:16:22 0° 183° (S) 2,868 6.5 -10.8°
Reaches altitude 10° 17:18:35 10° 181° (S) 1,966 5.7 -11.2°
Maximum altitude 17:22:54 73° 98° (E) 646 2.9 -11.9°
Drops below altitude 10° 17:27:16 10° 13° (NNE) 1,980 5.5 -12.6°
Sets 17:29:30 0° 12° (NNE) 2,891 6.4 -13.0°
